[[{"header":{"parameterUnit":"m.s-1","parameterCategory":1,"la1":30.2991,"la2":30.254,"lo1":-89.0895,"lo2":-89.0444,"dx":0.0017,"dy":0.0017,"nx":28,"ny":28,"refTime":"2023-01-17T09:00:00:Z","depth":0,"parameterNumber":2,"parameterNumberName":"U-component_of_WINDS"},"data":[0,0,0,0,0,0,0,0,0,0,0,0,0,0,0,0,0,0,0,0,0,0,0,0,0,0,0,0,0,0,0,0,0,0,0,0,0,0,0,0,0,0,0,0,0,0,0,0,0,0,0,0,0,0,0,0,0,0,2.0424,2.0424,0,2.0385,2.0385,2.0385,2.0367,2.0367,2.0367,2.0367,2.0326,2.0325,2.0324,0,0,0,0,0,0,0,0,0,0,0,0,0,2.0483,2.0482,2.0424,2.0424,2.0423,2.0386,2.0385,2.0384,2.0367,2.0367,2.0367,2.0367,2.0327,2.0325,2.0324,0,0,0,0,0,0,0,0,0,0,0,0,0,2.0452,2.0482,2.0424,2.041,2.0408,2.0386,2.0385,2.0384,2.0367,2.0367,2.0367,2.0367,2.0327,2.0325,2.0324,2.0312,0,0,2.0319,2.0318,0,0,0,0,0,0,0,0,2.0454,2.045,2.0412,2.0411,2.0409,2.0381,2.0391,2.036,2.0367,2.0382,2.0367,2.0367,2.0344,2.0341,2.0334,2.031,2.0309,2.0318,2.0317,2.0317,2.0316,0,0,0,0,0,0,0,2.0456,2.0452,2.0409,2.0412,2.041,2.0405,2.0401,2.0385,2.0363,2.0381,2.038,2.0375,2.0343,2.0335,2.0333,2.0308,2.0318,2.0317,2.0316,2.0315,2.0276,2.0276,0,0,0,0,0,0,2.0461,2.0454,2.041,2.0408,2.0432,2.0404,2.0399,2.039,2.0364,2.036,2.0375,2.0375,2.0338,2.0335,2.0331,2.0318,2.0317,2.0315,2.0314,2.0276,2.0276,2.0276,0,0,0,0,0,0,2.0462,2.0457,2.0412,2.043,2.0424,2.0403,2.0393,2.0389,2.0381,2.0359,2.0355,2.0371,2.0338,2.0334,2.0318,2.0316,2.0314,2.0313,2.0276,2.0276,2.0276,2.029,0,0,0,0,0,0,2.0464,2.0458,2.0453,2.043,2.0423,2.0399,2.0392,2.0388,2.0378,2.0377,2.0354,2.0351,2.0338,2.032,2.0316,2.0314,2.0312,2.0277,2.0276,2.0276,2.029,2.029,2.0291,0,0,0,0,0,2.0466,2.0457,2.0453,2.0447,2.0417,2.0398,2.0394,2.038,2.0378,2.0374,2.036,2.0351,2.0317,2.0319,2.0314,2.0311,2.0277,2.0276,2.0276,2.0289,2.029,2.0291,0,0,0,0,0,0,2.0479,2.0454,2.0448,2.0432,2.0418,2.0395,2.0389,2.0381,2.0366,2.0366,2.0349,2.0344,2.033,2.0319,2.0321,2.03,2.0296,2.0295,2.0308,2.0308,2.0309,2.0312,2.031,0,0,0,0,0,2.048,2.0467,2.0446,2.0434,2.0427,2.041,2.0401,2.0391,2.0376,2.0369,2.0354,2.0339,2.0325,2.0316,2.0302,2.0288,2.0284,2.0284,2.0285,2.0286,2.0285,2.0279,2.0279,2.0276,2.0276,2.0276,0,0,2.0482,2.0467,2.0459,2.0436,2.0424,2.0412,2.0404,2.0391,2.0382,2.0367,2.0352,2.0341,2.0323,2.0309,2.0302,2.0299,2.0285,2.0285,2.0286,2.0285,2.0279,2.0279,2.0279,2.0276,2.0276,2.0276,0,0,2.0479,2.0466,2.0455,2.0443,2.0426,2.0414,2.0412,2.0391,2.0384,2.0368,2.0358,2.0347,2.0322,2.0311,2.0302,2.0298,2.029,2.0294,2.0298,2.0292,2.0292,2.0292,2.0292,2.0292,2.0293,2.0293,2.0293,0,2.0483,2.0464,2.045,2.0438,2.0429,2.0417,2.0406,2.0396,2.0374,2.0368,2.0366,2.0337,2.0324,2.0308,2.0307,2.03,2.0297,2.0296,2.0293,2.0293,2.0293,2.0293,2.0293,2.0294,2.0294,2.0294,2.0294,0,2.0471,2.0458,2.0452,2.0433,2.0423,2.0412,2.0397,2.0389,2.0381,2.037,2.0356,2.034,2.0324,2.0319,2.031,2.0303,2.0302,2.0297,2.0292,2.0295,2.0294,2.0294,2.0295,2.0295,2.0294,2.0294,0,0,2.0473,2.0448,2.0446,2.0438,2.0419,2.0409,2.0398,2.0383,2.0377,2.0363,2.0354,2.0335,2.0331,2.0321,2.0312,2.0307,2.0307,2.0302,2.0302,2.0305,2.0299,2.0303,2.0303,2.0302,2.0302,2.0302,2.0301,0,2.0468,2.0448,2.0437,2.0422,2.0411,2.04,2.0391,2.0379,2.0369,2.0359,2.0348,2.0336,2.0331,2.0325,2.032,2.0308,2.0305,2.0308,2.0294,2.0294,2.0299,2.0303,2.0306,2.0306,2.03,2.03,2.03,0,2.0459,2.0447,2.0431,2.0416,2.0411,2.0402,2.0389,2.0379,2.0365,2.0359,2.0349,2.034,2.0329,2.0327,2.0312,2.0314,2.0308,2.0302,2.0302,2.03,2.0297,2.0302,2.0306,2.0306,2.0299,2.0299,2.03,0,2.0463,2.0443,2.0432,2.0425,2.0406,2.0401,2.0393,2.038,2.0372,2.036,2.0355,2.0342,2.0335,2.0326,2.0314,2.0313,2.0302,2.0297,2.0297,2.0297,2.0294,2.0295,2.0298,2.029,2.029,2.029,2.029,0,2.0459,2.045,2.0434,2.0427,2.0417,2.0405,2.0396,2.0387,2.0376,2.0367,2.0357,2.035,2.0335,2.0326,2.0316,2.0307,2.0303,2.0299,2.0296,2.03,2.03,2.0295,2.0295,2.029,2.029,2.029,2.029,0,2.0461,2.045,2.0438,2.0422,2.0418,2.0412,2.0398,2.0391,2.0382,2.0372,2.0369,2.0355,2.0344,2.0332,2.0316,2.031,2.0302,2.0298,2.0306,2.0305,2.0306,2.0306,2.0306,2.0306,2.0298,2.0298,2.0298,0,2.0459,2.0453,2.0437,2.0431,2.0424,2.0414,2.0407,2.0396,2.0389,2.0374,2.037,2.0359,2.0349,2.0332,2.032,2.0309,2.0306,2.0307,2.0304,2.0308,2.0307,2.0308,2.0308,2.0307,2.0307,2.0307,2.0308,0,2.0457,2.0453,2.0443,2.0433,2.0425,2.0415,2.0405,2.0401,2.0388,2.0381,2.037,2.0363,2.0349,2.0338,2.0326,2.0318,2.0311,2.0309,2.0308,2.0312,2.0317,2.0315,2.0309,2.0309,2.0309,2.0308,2.0308,2.0308,2.0458,2.0453,2.0442,2.0432,2.0424,2.0416,2.0409,2.0401,2.0392,2.038,2.0373,2.0363,2.0352,2.0336,2.0328,2.0321,2.0318,2.0317,2.0317,2.0317,2.0318,2.0319,2.0318,2.0318,2.0318,2.0318,2.0318,0,2.0456,2.045,2.0441,2.0429,2.0422,2.0417,2.0407,2.0401,2.0392,2.0383,2.0374,2.0363,2.0354,2.0342,2.0332,2.0328,2.0325,2.0326,2.0326,2.0325,2.032,2.0322,2.0329,2.0329,2.0329,2.0329,2.0329,2.0329,2.0455,2.0446,2.0441,2.0428,2.0421,2.0412,2.0407,2.04,2.0393,2.0381,2.0373,2.0367,2.0357,2.0346,2.0338,2.0335,2.0332,2.0334,2.033,2.0326,2.0325,2.0324,2.0326,2.0333,2.0333,2.0336,2.0336,2.0336]},{"header":{"parameterUnit":"m.s-1","parameterCategory":1,"la1":30.2991,"la2":30.254,"lo1":-89.0895,"lo2":-89.0444,"dx":0.0017,"dy":0.0017,"nx":28,"ny":28,"refTime":"2023-01-17T09:00:00:Z","depth":0,"parameterNumber":3,"parameterNumberName":"V-component_of_WINDS"},"data":[0,0,0,0,0,0,0,0,0,0,0,0,0,0,0,0,0,0,0,0,0,0,0,0,0,0,0,0,0,0,0,0,0,0,0,0,0,0,0,0,0,0,0,0,0,0,0,0,0,0,0,0,0,0,0,0,0,0,3.1559,3.1559,0,3.154,3.1539,3.1539,3.1512,3.1511,3.1511,3.151,3.149,3.149,3.149,0,0,0,0,0,0,0,0,0,0,0,0,0,3.1573,3.1573,3.1559,3.1559,3.1559,3.154,3.1539,3.1539,3.1512,3.1511,3.1511,3.151,3.149,3.149,3.149,0,0,0,0,0,0,0,0,0,0,0,0,0,3.1562,3.1573,3.1559,3.1543,3.1541,3.154,3.1539,3.1539,3.1512,3.1511,3.1511,3.151,3.149,3.149,3.149,3.1503,0,0,3.1489,3.1489,0,0,0,0,0,0,0,0,3.1563,3.1561,3.1546,3.1544,3.1542,3.1527,3.1537,3.1527,3.1512,3.1523,3.151,3.151,3.1503,3.1502,3.15,3.1502,3.1501,3.1489,3.1489,3.1489,3.1489,0,0,0,0,0,0,0,3.1563,3.1562,3.1551,3.1545,3.1543,3.1537,3.1534,3.1535,3.1517,3.1522,3.152,3.1518,3.1502,3.15,3.1499,3.1501,3.1489,3.1489,3.1489,3.1489,3.1514,3.1515,0,0,0,0,0,0,3.1567,3.1563,3.1552,3.1551,3.1551,3.1537,3.1534,3.1533,3.1517,3.1514,3.1519,3.1517,3.15,3.1499,3.1498,3.1514,3.1489,3.1489,3.1489,3.1513,3.1514,3.1515,0,0,0,0,0,0,3.1567,3.1566,3.1553,3.1556,3.1554,3.1537,3.1536,3.1533,3.1531,3.1515,3.1511,3.152,3.15,3.1498,3.1502,3.1513,3.1489,3.1489,3.1512,3.1514,3.1515,3.1544,0,0,0,0,0,0,3.1568,3.1566,3.1571,3.1557,3.1554,3.1557,3.1537,3.1533,3.1531,3.1528,3.1515,3.1512,3.1499,3.1503,3.1502,3.1512,3.1489,3.1511,3.1513,3.1514,3.1542,3.1546,3.1549,0,0,0,0,0,3.1568,3.1579,3.1571,3.157,3.156,3.1558,3.1556,3.1542,3.1531,3.1536,3.1526,3.1512,3.1511,3.1503,3.1502,3.1512,3.1511,3.1512,3.1514,3.1541,3.1545,3.1549,0,0,0,0,0,0,3.1595,3.1577,3.1568,3.1575,3.1568,3.1553,3.1559,3.1547,3.1543,3.1541,3.1522,3.152,3.1526,3.1519,3.1511,3.1525,3.1509,3.1511,3.1529,3.1534,3.1537,3.154,3.1488,0,0,0,0,0,3.1602,3.1602,3.1586,3.1594,3.1591,3.1576,3.1574,3.1564,3.1556,3.1553,3.1543,3.1536,3.1534,3.1533,3.153,3.1541,3.1538,3.1547,3.1551,3.1554,3.1556,3.1562,3.1567,3.1521,3.1521,3.1521,0,0,3.1616,3.1606,3.1607,3.1599,3.1593,3.1594,3.1573,3.1575,3.1576,3.1553,3.1557,3.1549,3.154,3.1548,3.155,3.1542,3.1568,3.1556,3.1559,3.1559,3.1565,3.1569,3.1573,3.1522,3.1522,3.1521,0,0,3.1642,3.1634,3.1641,3.1635,3.1625,3.1615,3.1617,3.1604,3.1598,3.1601,3.1585,3.1585,3.1582,3.1577,3.1574,3.1599,3.1587,3.1599,3.1618,3.1625,3.1629,3.1632,3.1643,3.1646,3.16,3.16,3.1601,0,3.166,3.1661,3.1645,3.1648,3.1646,3.1626,3.1633,3.1627,3.1618,3.1617,3.1607,3.1604,3.1596,3.1603,3.161,3.1607,3.1609,3.1601,3.1629,3.1632,3.1635,3.1645,3.1649,3.1602,3.1602,3.1602,3.1602,0,3.1686,3.1686,3.1693,3.1685,3.1683,3.1688,3.1673,3.1672,3.1662,3.1653,3.1657,3.1647,3.1643,3.1644,3.1633,3.165,3.1645,3.1633,3.1617,3.1641,3.1651,3.1654,3.1604,3.1604,3.1603,3.1603,0,0,3.1729,3.1712,3.1715,3.1712,3.17,3.1701,3.1705,3.1701,3.1702,3.1696,3.17,3.1698,3.1687,3.1684,3.1672,3.1678,3.1701,3.1665,3.1665,3.1674,3.1721,3.1731,3.1736,3.1692,3.1693,3.1693,3.1722,0,3.1754,3.1761,3.1747,3.1757,3.1759,3.174,3.1744,3.1737,3.1729,3.1729,3.1719,3.172,3.1704,3.1702,3.1707,3.1697,3.1711,3.1695,3.1697,3.1697,3.1702,3.174,3.1751,3.1779,3.1725,3.1726,3.1726,0,3.1784,3.1781,3.1792,3.1781,3.1781,3.1785,3.1781,3.1781,3.1774,3.1768,3.1764,3.1751,3.1755,3.1739,3.1745,3.1735,3.1735,3.173,3.1731,3.1732,3.1715,3.1744,3.1787,3.1792,3.1731,3.1731,3.1731,0,3.1817,3.1815,3.1822,3.1819,3.1806,3.181,3.1804,3.1796,3.1795,3.1792,3.1791,3.1788,3.1787,3.1785,3.1772,3.1761,3.178,3.1762,3.1776,3.1776,3.1782,3.1782,3.1827,3.1779,3.1779,3.1779,3.1779,0,3.1848,3.1856,3.1836,3.1841,3.1849,3.1833,3.1842,3.1835,3.1828,3.1831,3.1813,3.1817,3.1798,3.1799,3.1789,3.1797,3.1795,3.1791,3.1789,3.1794,3.1795,3.1795,3.1793,3.178,3.178,3.178,3.1779,0,3.1887,3.1874,3.188,3.1867,3.1865,3.1872,3.1861,3.1865,3.1855,3.186,3.1859,3.1845,3.1846,3.1832,3.183,3.1823,3.1836,3.1829,3.1839,3.1837,3.1853,3.1852,3.1901,3.1907,3.1853,3.1854,3.1854,0,3.1908,3.1914,3.1902,3.1903,3.1899,3.1901,3.19,3.1884,3.1884,3.1877,3.1882,3.1881,3.188,3.1882,3.1872,3.187,3.1865,3.1882,3.1864,3.187,3.1867,3.1868,3.1869,3.1886,3.1887,3.1887,3.1887,0,3.1948,3.1942,3.1941,3.1939,3.1939,3.1937,3.1933,3.1935,3.1917,3.1918,3.1919,3.1919,3.1917,3.1917,3.1914,3.1909,3.1896,3.1893,3.1896,3.1903,3.1909,3.1908,3.1851,3.1892,3.1892,3.1891,3.1891,3.1891,3.198,3.1985,3.1978,3.1979,3.1975,3.1972,3.1975,3.1967,3.1967,3.1965,3.1955,3.1959,3.1952,3.1946,3.1942,3.1945,3.1937,3.1941,3.1943,3.1945,3.1948,3.1907,3.1944,3.1944,3.1944,3.1944,3.1943,0,3.2021,3.2016,3.2017,3.2013,3.2013,3.2001,3.1996,3.1998,3.2001,3.1996,3.1996,3.1998,3.1998,3.1987,3.1987,3.1991,3.1985,3.1991,3.1992,3.1991,3.1955,3.1953,3.1996,3.1996,3.1996,3.1996,3.1996,3.1996,3.2043,3.2051,3.2044,3.205,3.2045,3.2048,3.2047,3.2045,3.2041,3.2044,3.2044,3.2038,3.2031,3.203,3.203,3.2027,3.2028,3.2037,3.2032,3.1999,3.1994,3.1989,3.1987,3.2037,3.2037,3.2069,3.2069,3.2069]}]]